DIRECTV 12

Last updated on Fri Oct 11 2024 00:02:39 GMT+0000 (Coordinated Universal Time)

1 36131U 09075A 24284.52669653 -.00000099 00000+0 00000+0 0 9994 2 36131 0.0061 126.4146 0000268 294.5493 45.5821 1.00270440 54225
UTC large
Height (km)
Speed (km/s)
/
Latitude / Longitude
Inclination (degrees)
Orbital Period (minutes)
Azimuth
Elevation
Range (km)
Doppler Factor

Next 0 passes for location: London (51.5072 / 0.1276)

Sorry there are no passes over London.